Starlink 35914

operational
NORAD ID: 66532 Int'l Des: 2025-265 Owner: SPXS Country: US Constellation: starlink
LEOCIRCULAR

About Starlink 35914

Description loading...

Live Position

Loading 3D Globe...

Upcoming Passes

Altitude History

Altitude vs Time

uPlot chart will show altitude changes over time

Two-Line Element Set

1 66532U 25265S 25338.75002315 -.01827856 00000-0 -15039-1 0 9994
2 66532 42.9998 101.1840 0001373 275.0973 30.1127 15.72745066 3715
Epoch: Dec 4, 2025 • Age: 11 hours

Current Status

Altitude 357.5 km
Velocity 7.70 km/s
Sub-Earth Point 26.32°N, 89.69°E
Launch Date Nov 19, 2025
Age 16 days
Type internet

Technical Details

Classification Payload
Mass 575.00 kg
Dry Mass 530.00 kg
Total Mass 575.00 kg
Length 0.30 m
Diameter 4.10 m
Span 29.00 m
Shape Box + pan
Manufacturer SPXS
Bus Type Starlink V2MO
Phase Status In Orbit
Owner/State SPXS/US

Large Constellations

Loading constellations...